This demonstration page uses our WeatherBlox Daily Observations layout. Learn more.

Left ArrowRight Arrow

Hourly Observations for March 8, 2021

Temp ( °F °C ) Dew Point ( °F °C ) Humidity (%) Winds ( mph kmh ) Pressure ( in mb ) Visibility ( mi km ) Precip ( " mm )
12:15 am 00:15 Clear 47 8.3 36 2.4 67 67 S 7 11 30.15 1021 10 16.0934 0 0
12:35 am 00:35 Clear 47 8.4 37 2.5 67 67 S 8 13 30.15 1021 10 16.0934 0 0
12:55 am 00:55 Clear 47 8.2 37 2.5 68 68 S 8 13 30.14 1021 10 16.0934 0 0
1:15 am 01:15 Clear 46 7.9 36 2.4 69 69 S 9 15 30.14 1021 10 16.0934 0 0
1:35 am 01:35 Clear 46 7.6 36 2.3 69 69 S 9 15 30.14 1021 10 16.0934 0 0
1:55 am 01:55 Clear 46 7.6 36 2.2 69 69 S 8 13 30.14 1021 10 16.0934 0 0
2:15 am 02:15 Clear 42 5.3 34 1.3 76 76 S 6 9 30.16 1021 10 16.0934 0 0
2:35 am 02:35 Clear 41 5.1 35 1.7 79 79 S 9 15 30.16 1021 10 16.0934 0 0
2:55 am 02:55 Clear 42 5.6 36 2.1 78 78 S 8 13 30.14 1021 10 16.0934 0 0
3:15 am 03:15 Clear 39 3.8 33 0.6 80 80 S 7 11 30.16 1021 10 16.0934 0 0
3:35 am 03:35 Clear 38 3.5 33 0.6 82 82 S 9 15 30.16 1021 10 16.0934 0 0
3:55 am 03:55 Clear 37 3 33 0.3 83 83 S 5 7 30.17 1022 10 16.0934 0 0
4:15 am 04:15 Clear 38 3.5 34 1 84 84 S 6 9 30.16 1021 10 16.0934 0 0
4:35 am 04:35 Clear 37 3 33 0.7 85 85 S 6 9 30.17 1022 10 16.0934 0 0
4:55 am 04:55 Clear 36 2.2 33 0.3 87 87 SSE 5 7 30.17 1022 10 16.0934 0 0
5:15 am 05:15 Clear 37 2.6 33 0.7 87 87 SSE 7 11 30.17 1022 10 16.0934 0 0
5:35 am 05:35 Clear 36 2.4 33 0.3 86 86 SSE 6 9 30.17 1022 10 16.0934 0 0
5:55 am 05:55 Clear 37 2.5 33 0.6 87 87 S 5 7 30.18 1022 10 16.0934 0 0
6:15 am 06:15 Clear 37 2.6 34 0.9 89 89 S 5 7 30.18 1022 10 16.0934 0 0
6:35 am 06:35 Clear 37 2.5 33 0.6 87 87 Calm 30.18 1022 10 16.0934 0 0
6:55 am 06:55 Clear 35 1.8 32 0.2 89 89 SSE 3 6 30.19 1022 10 16.0934 0 0
7:15 am 07:15 Sunny 36 2.2 33 0.6 89 89 S 8 13 30.18 1022 10 16.0934 0 0
7:35 am 07:35 Sunny 38 3.4 35 1.6 88 88 SSE 8 13 30.17 1022 10 16.0934 0 0
7:55 am 07:55 Sunny 40 4.6 36 2.3 85 85 SSE 7 11 30.16 1021 10 16.0934 0 0
8:15 am 08:15 Sunny 44 6.5 38 3.1 79 79 S 9 15 30.15 1021 10 16.0934 0 0
8:35 am 08:35 Sunny 46 7.6 38 3.2 74 74 S 13 20 30.15 1021 10 16.0934 0 0
8:55 am 08:55 Sunny 47 8.3 37 3 70 70 S 12 19 30.14 1021 10 16.0934 0 0
9:15 am 09:15 Sunny 48 9.1 38 3.1 66 66 S 13 20 30.14 1021 10 16.0934 0 0
9:35 am 09:35 Sunny 50 10 38 3.3 63 63 S 10 17 30.13 1020 10 16.0934 0 0
9:55 am 09:55 Sunny 52 11 38 3.2 59 59 SSE 13 20 30.1 1019 10 16.0934 0 0
10:15 am 10:15 Sunny 53 11.8 37 3 55 55 S 13 20 30.1 1019 10 16.0934 0 0
10:35 am 10:35 Sunny 55 12.7 37 2.8 51 51 S 13 20 30.1 1019 10 16.0934 0 0
10:55 am 10:55 Sunny 57 13.7 37 2.9 48 48 SSE 10 17 30.08 1019 10 16.0934 0 0
11:15 am 11:15 undefined 58 14.4 37 2.8 46 46 SSE 14 22 30.06 1018 10 16.0934 0 0
11:35 am 11:35 Sunny 61 15.9 37 3 42 42 SSE 14 22 30.04 1017 10 16.0934 0 0
11:55 am 11:55 Sunny 61 15.9 37 2.7 41 41 SSE 13 20 30.04 1017 10 16.0934 0 0
12:15 pm 12:15 Sunny 61 16.3 36 2.1 39 39 SSE 14 22 30.04 1017 10 16.0934 0.01 0.254
12:35 pm 12:35 Sunny 63 17.1 36 2.1 37 37 SSE 18 30 30.01 1016 10 16.0934 0.01 0.254
12:55 pm 12:55 Sunny 63 17.4 36 2.2 36 36 SSE 17 28 30.01 1016 10 16.0934 0.01 0.254
1:15 pm 13:15 Sunny 66 19 36 2.2 33 33 S 18 30 29.99 1015 10 16.0934 0 0
1:35 pm 13:35 Sunny 64 18 36 2.4 35 35 SSE 16 26 29.97 1015 10 16.0934 0 0
1:55 pm 13:55 Sunny 66 19 36 2.4 33 33 S 23 37 29.97 1015 10 16.0934 0 0
2:15 pm 14:15 Sunny 66 19.1 37 2.5 33 33 S 20 31 29.95 1014 10 16.0934 0 0
2:35 pm 14:35 Sunny 69 20.3 38 3.2 32 32 S 21 33 29.93 1014 10 16.0934 0 0
2:55 pm 14:55 Sunny 71 21.4 38 3.2 30 30 S 23 37 29.92 1013 10 16.0934 0 0
3:15 pm 15:15 Sunny 69 20.7 38 3.5 32 32 S 25 41 29.91 1013 10 16.0934 0 0
3:35 pm 15:35 Sunny 70 21 39 3.7 32 32 S 22 35 29.9 1012 10 16.0934 0 0
3:55 pm 15:55 Sunny 69 20.8 36 2.4 30 30 S 22 35 29.9 1013 10 16.0934 0 0
4:15 pm 16:15 Sunny 68 20 37 2.7 32 32 SSE 20 31 29.9 1012 10 16.0934 0 0
4:35 pm 16:35 Sunny 68 20 38 3.2 33 33 SSE 20 31 29.89 1012 10 16.0934 0 0
4:55 pm 16:55 Sunny 69 20.4 37 3 32 32 S 23 37 29.88 1012 10 16.0934 0 0
5:15 pm 17:15 Sunny 67 19.4 38 3.1 34 34 SSE 23 37 29.89 1012 10 16.0934 0 0
5:35 pm 17:35 Sunny 65 18.5 38 3.1 36 36 SSE 23 37 29.89 1012 10 16.0934 0 0
5:55 pm 17:55 Sunny 64 17.8 38 3.1 38 38 SSE 17 28 29.91 1013 10 16.0934 0 0
6:15 pm 18:15 Sunny 64 17.5 38 3.2 39 39 S 20 31 29.91 1013 10 16.0934 0 0
6:35 pm 18:35 Sunny 62 16.9 38 3.2 40 40 SSE 15 24 29.91 1013 10 16.0934 0 0
6:55 pm 18:55 Clear 61 16.2 38 3.5 43 43 SSE 14 22 29.92 1013 10 16.0934 0 0
7:15 pm 19:15 Clear 60 15.4 39 3.7 46 46 SSE 13 20 29.93 1013 10 16.0934 0 0
7:35 pm 19:35 Clear 59 14.8 39 4 49 49 SSE 10 17 29.93 1014 10 16.0934 0 0
7:55 pm 19:55 Clear 58 14.6 40 4.3 50 50 SSE 13 20 29.93 1014 10 16.0934 0 0
8:15 pm 20:15 Clear 58 14.5 40 4.6 52 52 SSE 15 24 29.92 1013 10 16.0934 0 0
8:35 pm 20:35 Clear 58 14.4 40 4.7 52 52 SSE 14 22 29.91 1013 10 16.0934 0 0
8:55 pm 20:55 Clear 58 14.2 41 5 54 54 SSE 16 26 29.91 1013 10 16.0934 0 0
9:15 pm 21:15 Clear 56 13.5 41 5 57 57 SSE 16 26 29.9 1013 10 16.0934 0 0
9:35 pm 21:35 Clear 55 13 41 5.1 59 59 SSE 16 26 29.9 1012 10 16.0934 0 0
9:55 pm 21:55 Clear 56 13.4 42 5.4 59 59 SSE 18 30 29.88 1012 10 16.0934 0 0
10:15 pm 22:15 Clear 55 12.9 42 5.3 60 60 SSE 14 22 29.9 1012 10 16.0934 0 0
10:35 pm 22:35 Clear 55 12.5 42 5.5 63 63 SSE 13 20 29.9 1013 10 16.0934 0 0
10:55 pm 22:55 Clear 55 12.5 42 5.6 63 63 SSE 13 20 29.89 1012 10 16.0934 0 0
11:15 pm 23:15 Clear 54 12.2 42 5.7 65 65 S 16 26 29.88 1012 10 16.0934 0 0
11:35 pm 23:35 Clear 54 12 42 5.8 66 66 SSE 16 26 29.88 1012 10 16.0934 0 0
11:55 pm 23:55 Clear 54 12 43 6 67 67 S 15 24 29.88 1012 10 16.0934 0 0

Powered by AerisWeather